Find Starlink 4089

NORAD ID: 52831 Int'l Des: 2022-062 Owner: SPXS Country: US Constellation: starlink operational
LEOCIRCULAR

現在のビュー

3D地球を読み込み中...

About Starlink 4089

Starlink 4089 (NORAD 52831) is a starlink constellation satellite (v1.5) launched Jun 17, 2022 by SPXS of US. It operates in LEO, CIRCULAR orbit with a mass of 297.00 kg.

Starlink 4089について

説明を読み込み中...

次回通過

Passes for default location (London). Set your location on the main map for personalized predictions.

高度履歴

Loading altitude history...

軌道要素

1 52831U 22062B 26174.56125920 -.00000151 00000-0 86353-5 0 9999
2 52831 53.1599 278.7080 0001273 88.0115 272.1022 15.08836466221762
Epoch: Jun 23, 2026 • Age: 43 hours

現在のステータス

高度 539.7 km
速度 7.60 km/s
衛星直下点 16.73°N, 117.2°W
打ち上げ日 Jun 17, 2022
運用期間 4 years
タイプ internet

技術仕様

分類 Payload
質量 297.00 kg
乾燥質量 275.00 kg
総質量 297.00 kg
長さ 0.20 m
直径 2.80 m
スパン 9.00 m
形状 Box + pan
製造者 SPXS
バスタイプ Starlink
フェーズステータス In Orbit
所有者/国 SPXS/US

Most Searched